Spokane, WA

8:54 AM PDT on August 17, 2017 (GMT -0700)
Spokane International

Weather History for KGEG - September, 2013

Change the Weather History Date:

Sunday, September 22, 2013

  Actual Average Record
Temperature  
Mean Temperature 55 °F 58 °F  
Max Temperature 62 °F 70 °F 93 °F (1966)
Min Temperature 48 °F 45 °F 31 °F (1991)
Degree Days  
Heating Degree Days 10 8  
Month to date heating degree days 47 109  
Since 1 July heating degree days 54 174  
Cooling Degree Days 0 1  
Month to date cooling degree days 108 35  
Year to date cooling degree days 709 446  
Growing Degree Days 4 (Base 50)    
Moisture  
Dew Point 44 °F    
Average Humidity 66    
Maximum Humidity 89    
Minimum Humidity 42    
Precipitation  
Precipitation 0.05 in 0.02 in 0.60 in (1934)
Month to date precipitation 0.55 0.48  
Year to date precipitation 8.02 10.59  
Snow  
Snow 0.00 in 0.00 in 0.00 in (2002)
Month to date snowfall 0.0 0.0  
Since 1 July snowfall 0.0 0.0  
Since 1 September snowfall 0.0 0.0  
Snow Depth 0.00 in    
Sea Level Pressure  
Sea Level Pressure 29.69 in    
Wind  
Wind Speed 15 mph (SSW)    
Max Wind Speed 28 mph    
Max Gust Speed 35 mph    
Visibility 10 miles    
Events Rain    
T = Trace of Precipitation, MM = Missing Value Source: NWS Daily Summary

Daily Weather History Graph

Daily Weather History Graph

Search for Another Location

Airport or City:

Trip Planner

Search our weather history database for the weather conditions in past years. The results will help you decide how hot, cold, wet, or windy it might be!

Date:

Astronomy

Sep. 22, 2013 Rise Set
Actual Time 6:37 AM PDT 6:47 PM PDT
Civil Twilight 6:06 AM PDT 7:17 PM PDT
Nautical Twilight 5:30 AM PDT 7:53 PM PDT
Astronomical Twilight 4:52 AM PDT 8:31 PM PDT
Moon 8:22 PM PDT (9/22) 10:19 AM PDT (9/22)
Length of Visible Light 13h 11m
Length of Day
12h 09m
Waning Gibbous, 88% of the Moon is Illuminated
Sep 22
Waning Gibbous
Sep 26
Last Quarter
Oct 4
New
Oct 11
First Quarter
Oct 18
Full

Hourly Weather History & Observations

Time (PDT) Temp. Dew Point Humidity Pressure Visibility Wind Dir Wind Speed Gust Speed Precip Events Conditions
12:53 AM 51.1 °F 39.9 °F 66% 29.65 in 10.0 mi SSE 6.9 mph - N/A   Partly Cloudy
1:53 AM 51.1 °F 41.0 °F 68% 29.65 in 10.0 mi SSE 6.9 mph - N/A   Partly Cloudy
2:53 AM 51.1 °F 42.1 °F 71% 29.66 in 10.0 mi South 10.4 mph - N/A   Partly Cloudy
3:53 AM 48.9 °F 42.1 °F 77% 29.68 in 10.0 mi South 10.4 mph - N/A   Scattered Clouds
4:53 AM 50.0 °F 44.1 °F 80% 29.68 in 10.0 mi South 10.4 mph - N/A   Overcast
5:53 AM 48.9 °F 44.1 °F 83% 29.68 in 10.0 mi South 10.4 mph - N/A   Mostly Cloudy
6:53 AM 50.0 °F 45.0 °F 83% 29.69 in 10.0 mi South 9.2 mph - N/A   Mostly Cloudy
7:53 AM 51.1 °F 45.0 °F 80% 29.70 in 10.0 mi SSW 12.7 mph - N/A   Mostly Cloudy
8:30 AM 51.8 °F 44.6 °F 76% 29.71 in 10.0 mi South 11.5 mph - N/A   Mostly Cloudy
8:53 AM 51.1 °F 45.0 °F 80% 29.71 in 10.0 mi South 10.4 mph - N/A   Mostly Cloudy
9:53 AM 54.0 °F 44.1 °F 69% 29.72 in 10.0 mi SSW 15.0 mph - N/A   Mostly Cloudy
10:53 AM 55.9 °F 44.1 °F 64% 29.71 in 10.0 mi SSW 15.0 mph - N/A   Mostly Cloudy
11:53 AM 57.0 °F 43.0 °F 59% 29.71 in 10.0 mi SSW 15.0 mph - N/A   Overcast
12:53 PM 57.9 °F 43.0 °F 58% 29.70 in 10.0 mi SSW 16.1 mph - N/A   Mostly Cloudy
1:53 PM 60.1 °F 44.1 °F 55% 29.68 in 10.0 mi SSW 15.0 mph - 0.00 in Rain Light Rain
2:53 PM 62.1 °F 41.0 °F 46% 29.66 in 10.0 mi SW 17.3 mph - 0.00 in   Mostly Cloudy
3:53 PM 61.0 °F 37.9 °F 42% 29.66 in 10.0 mi SW 18.4 mph - N/A   Overcast
4:53 PM 61.0 °F 37.9 °F 42% 29.66 in 10.0 mi SW 23.0 mph 29.9 mph N/A   Overcast
5:53 PM 55.9 °F 45.0 °F 67% 29.68 in 7.0 mi SW 24.2 mph 28.8 mph 0.00 in Rain Light Rain
6:53 PM 51.1 °F 48.0 °F 89% 29.70 in 7.0 mi SW 15.0 mph - 0.03 in Rain Light Rain
7:53 PM 51.1 °F 48.0 °F 89% 29.70 in 10.0 mi SSW 15.0 mph 24.2 mph 0.02 in Rain Light Rain
8:53 PM 51.1 °F 46.9 °F 86% 29.69 in 10.0 mi SSW 20.7 mph 34.5 mph 0.00 in Rain Light Rain
9:53 PM 51.1 °F 48.0 °F 89% 29.71 in 10.0 mi SSW 15.0 mph 20.7 mph 0.00 in   Overcast
10:08 PM 51.8 °F 48.2 °F 88% 29.71 in 10.0 mi SSW 16.1 mph 23.0 mph N/A   Overcast
10:42 PM 51.8 °F 48.2 °F 88% 29.73 in 10.0 mi SSW 16.1 mph - N/A   Overcast
10:53 PM 51.1 °F 48.0 °F 89% 29.72 in 10.0 mi SSW 15.0 mph - N/A   Overcast
11:53 PM 51.1 °F 48.0 °F 89% 29.73 in 10.0 mi SW 15.0 mph - N/A   Overcast